• Em Portugal
  • Lista de países
  • Para 7 dias
  • Temperatura da água
  • Mapas de satélite
  • Mapa do tempo
  • Widgets de tempo
  • user-avatar
    Iniciar Sessão

    Previsão horária em Cavasaqui

    Hoje, 24 Setembro, Segunda-feira

    Tempo Temperatura Precipitação Vento Pressão Humidade
    00:00 +24°C° 0 mm 1 m/s 757 mmHg 78%
    01:00 +24°C° 0 mm 1 m/s 757 mmHg 79%
    02:00 +24°C° 0 mm 1 m/s 756 mmHg 80%
    03:00 +24°C° 0 mm 1 m/s 756 mmHg 82%
    04:00 +24°C° 0 mm 1 m/s 756 mmHg 82%
    05:00 +24°C° 0 mm 1 m/s 756 mmHg 83%
    06:00 +24°C° 0 mm 1 m/s 757 mmHg 83%
    07:00 +26°C° 0 mm 1 m/s 757 mmHg 77%
    08:00 +27°C° 0 mm 1 m/s 756 mmHg 71%
    09:00 +27°C° 0 mm 0 m/s 756 mmHg 65%
    10:00 +30°C° 0 mm 1 m/s 756 mmHg 60%
    11:00 +31°C° 0 mm 1 m/s 756 mmHg 56%
    12:00 +32°C° 0 mm 1 m/s 756 mmHg 52%
    13:00 +31°C° 0 mm 1 m/s 756 mmHg 54%
    14:00 +30°C° 0 mm 1 m/s 756 mmHg 56%
    15:00 +28°C° 0 mm 1 m/s 756 mmHg 63%
    16:00 +28°C° 0 mm 1 m/s 756 mmHg 65%
    17:00 +27°C° 0 mm 1 m/s 756 mmHg 67%
    18:00 +26°C° 0 mm 1 m/s 756 mmHg 69%
    19:00 +26°C° 0 mm 1 m/s 756 mmHg 71%
    20:00 +25°C° 0 mm 2 m/s 756 mmHg 74%
    21:00 +25°C° 0 mm 2 m/s 757 mmHg 76%
    22:00 +24°C° 0 mm 2 m/s 757 mmHg 76%
    23:00 +24°C° 0 mm 2 m/s 756 mmHg 77%

    Amanhã, 25 Setembro, Terça-feira

    Tempo Temperatura Precipitação Vento Pressão Humidade
    00:00 +24°C° 0 mm 2 m/s 756 mmHg 77%
    01:00 +24°C° 0.1 mm 2 m/s 756 mmHg 77%
    02:00 +24°C° 0.1 mm 2 m/s 756 mmHg 77%
    03:00 +23°C° 0.1 mm 2 m/s 756 mmHg 76%
    04:00 +23°C° 0.2 mm 2 m/s 756 mmHg 77%
    05:00 +23°C° 0.2 mm 2 m/s 756 mmHg 78%
    06:00 +23°C° 0.2 mm 2 m/s 756 mmHg 78%
    07:00 +23°C° 0.8 mm 1 m/s 756 mmHg 79%
    08:00 +23°C° 0.8 mm 1 m/s 757 mmHg 79%
    09:00 +23°C° 0.8 mm 1 m/s 757 mmHg 79%
    10:00 +23°C° 1.2 mm 1 m/s 757 mmHg 79%
    11:00 +23°C° 1.2 mm 1 m/s 757 mmHg 79%
    12:00 +23°C° 1.2 mm 1 m/s 757 mmHg 79%
    13:00 +24°C° 0.3 mm 1 m/s 756 mmHg 76%
    14:00 +25°C° 0.3 mm 1 m/s 756 mmHg 73%
    15:00 +25°C° 0.3 mm 1 m/s 756 mmHg 70%
    16:00 +25°C° 0 mm 1 m/s 756 mmHg 72%
    17:00 +24°C° 0 mm 1 m/s 756 mmHg 74%
    18:00 +24°C° 0 mm 1 m/s 756 mmHg 76%
    19:00 +23°C° 0 mm 1 m/s 756 mmHg 77%
    20:00 +23°C° 0 mm 1 m/s 757 mmHg 78%
    21:00 +23°C° 0 mm 1 m/s 757 mmHg 80%
    22:00 +22°C° 0 mm 1 m/s 757 mmHg 80%
    23:00 +22°C° 0 mm 1 m/s 757 mmHg 81%

    Depois de amanhã, 26 Setembro, Quarta-feira

    Tempo Temperatura Precipitação Vento Pressão Humidade
    00:00 +22°C° 0 mm 1 m/s 757 mmHg 81%
    01:00 +22°C° 0 mm 1 m/s 757 mmHg 81%
    02:00 +22°C° 0 mm 1 m/s 756 mmHg 80%
    03:00 +22°C° 0 mm 1 m/s 756 mmHg 79%
    04:00 +22°C° 0 mm 1 m/s 756 mmHg 79%
    05:00 +22°C° 0 mm 1 m/s 756 mmHg 79%
    06:00 +22°C° 0 mm 1 m/s 756 mmHg 78%
    07:00 +23°C° 0 mm 1 m/s 757 mmHg 73%
    08:00 +24°C° 0 mm 1 m/s 757 mmHg 68%
    09:00 +26°C° 0 mm 1 m/s 757 mmHg 63%
    10:00 +27°C° 0 mm 1 m/s 757 mmHg 60%
    11:00 +28°C° 0 mm 1 m/s 757 mmHg 57%
    12:00 +29°C° 0 mm 1 m/s 756 mmHg 54%
    13:00 +29°C° 0 mm 1 m/s 756 mmHg 56%
    14:00 +28°C° 0 mm 1 m/s 756 mmHg 57%
    15:00 +28°C° 0 mm 1 m/s 755 mmHg 59%
    16:00 +27°C° 0.1 mm 1 m/s 755 mmHg 64%
    17:00 +26°C° 0.1 mm 1 m/s 755 mmHg 68%
    18:00 +25°C° 0.1 mm 1 m/s 756 mmHg 73%
    19:00 +25°C° 0.1 mm 1 m/s 756 mmHg 75%
    20:00 +24°C° 0.1 mm 1 m/s 756 mmHg 77%
    21:00 +22°C° 0.1 mm 0 m/s 756 mmHg 79%
    22:00 +24°C° 0.4 mm 1 m/s 756 mmHg 80%
    23:00 +23°C° 0.4 mm 1 m/s 756 mmHg 81%

    27 Setembro, Quinta-feira

    Tempo Temperatura Precipitação Vento Pressão Humidade
    00:00 +23°C° 0.4 mm 1 m/s 755 mmHg 82%
    01:00 +23°C° 1.1 mm 1 m/s 755 mmHg 83%
    02:00 +22°C° 1.1 mm 1 m/s 754 mmHg 85%
    03:00 +21°C° 1.1 mm 2 m/s 754 mmHg 86%
    04:00 +21°C° 3.2 mm 2 m/s 754 mmHg 87%
    05:00 +21°C° 3.2 mm 2 m/s 754 mmHg 87%
    06:00 +21°C° 3.2 mm 2 m/s 754 mmHg 88%
    07:00 +22°C° 2 mm 1 m/s 754 mmHg 88%
    08:00 +22°C° 2 mm 1 m/s 754 mmHg 88%
    09:00 +22°C° 2 mm 1 m/s 754 mmHg 87%
    10:00 +22°C° 2.4 mm 1 m/s 754 mmHg 87%
    11:00 +21°C° 2.4 mm 2 m/s 754 mmHg 87%
    12:00 +21°C° 2.4 mm 2 m/s 754 mmHg 87%
    13:00 +21°C° 3.7 mm 2 m/s 753 mmHg 87%
    14:00 +22°C° 3.7 mm 1 m/s 753 mmHg 88%
    15:00 +21°C° 3.7 mm 1 m/s 753 mmHg 88%
    16:00 +21°C° 1.2 mm 1 m/s 753 mmHg 88%
    17:00 +21°C° 1.2 mm 1 m/s 753 mmHg 88%
    18:00 +21°C° 1.2 mm 1 m/s 753 mmHg 88%
    19:00 +21°C° 0.6 mm 1 m/s 754 mmHg 88%
    20:00 +21°C° 0.6 mm 1 m/s 754 mmHg 88%
    21:00 +21°C° 0.6 mm 1 m/s 754 mmHg 88%
    22:00 +21°C° 0.1 mm 1 m/s 754 mmHg 88%
    23:00 +20°C° 0.1 mm 1 m/s 754 mmHg 88%

    28 Setembro, Sexta-feira

    Tempo Temperatura Precipitação Vento Pressão Humidade
    00:00 +20°C° 0.1 mm 1 m/s 753 mmHg 87%
    01:00 +20°C° 0 mm 1 m/s 753 mmHg 87%
    02:00 +20°C° 0 mm 1 m/s 753 mmHg 87%
    03:00 +19°C° 0 mm 1 m/s 753 mmHg 87%
    04:00 +18°C° 0 mm 2 m/s 754 mmHg 87%
    05:00 +18°C° 0 mm 2 m/s 754 mmHg 87%
    06:00 +18°C° 0 mm 2 m/s 754 mmHg 87%
    07:00 +19°C° 0 mm 2 m/s 755 mmHg 80%
    08:00 +22°C° 0 mm 1 m/s 755 mmHg 73%
    09:00 +24°C° 0 mm 1 m/s 755 mmHg 66%
    10:00 +25°C° 0 mm 1 m/s 755 mmHg 58%
    11:00 +27°C° 0 mm 2 m/s 755 mmHg 50%
    12:00 +28°C° 0 mm 2 m/s 755 mmHg 43%
    13:00 +29°C° 0 mm 2 m/s 755 mmHg 43%
    14:00 +29°C° 0 mm 2 m/s 754 mmHg 43%
    15:00 +29°C° 0 mm 2 m/s 754 mmHg 43%
    16:00 +27°C° 0 mm 2 m/s 755 mmHg 50%
    17:00 +26°C° 0 mm 2 m/s 755 mmHg 57%
    18:00 +24°C° 0 mm 2 m/s 756 mmHg 64%
    19:00 +23°C° 0 mm 1 m/s 756 mmHg 68%
    20:00 +22°C° 0 mm 1 m/s 757 mmHg 73%
    21:00 +22°C° 0 mm 1 m/s 757 mmHg 77%
    22:00 +21°C° 0 mm 1 m/s 757 mmHg 77%
    23:00 +21°C° 0 mm 1 m/s 757 mmHg 78%

    29 Setembro, Sábado

    Tempo Temperatura Precipitação Vento Pressão Humidade
    00:00 +21°C° 0 mm 1 m/s 757 mmHg 78%
    01:00 +21°C° 0 mm 1 m/s 757 mmHg 79%
    02:00 +21°C° 0 mm 1 m/s 757 mmHg 80%
    03:00 +21°C° 0 mm 1 m/s 757 mmHg 80%
    04:00 +21°C° 0 mm 1 m/s 757 mmHg 82%
    05:00 +20°C° 0 mm 1 m/s 757 mmHg 83%
    06:00 +20°C° 0 mm 1 m/s 757 mmHg 84%
    07:00 +22°C° 0 mm 1 m/s 757 mmHg 78%
    08:00 +24°C° 0 mm 1 m/s 757 mmHg 72%
    09:00 +25°C° 0 mm 1 m/s 757 mmHg 66%
    10:00 +26°C° 0 mm 1 m/s 757 mmHg 61%
    11:00 +27°C° 0 mm 2 m/s 756 mmHg 56%
    12:00 +28°C° 0 mm 2 m/s 756 mmHg 51%
    13:00 +28°C° 0 mm 2 m/s 756 mmHg 52%
    14:00 +28°C° 0 mm 3 m/s 755 mmHg 53%
    15:00 +28°C° 0 mm 3 m/s 755 mmHg 55%
    16:00 +27°C° 0 mm 2 m/s 755 mmHg 61%
    17:00 +26°C° 0 mm 2 m/s 756 mmHg 67%
    18:00 +24°C° 0 mm 1 m/s 756 mmHg 74%
    19:00 +24°C° 0.1 mm 2 m/s 756 mmHg 76%
    20:00 +24°C° 0.1 mm 2 m/s 756 mmHg 79%
    21:00 +24°C° 0.1 mm 2 m/s 756 mmHg 81%
    22:00 +23°C° 0.4 mm 2 m/s 755 mmHg 83%
    23:00 +23°C° 0.4 mm 2 m/s 755 mmHg 84%
    Mostrar mais